Terminal Aerodrome Forecast
Issued by NWS

Home | Current Version | Previous Version | Text Only | Print | Product List | Glossary On
Versions: 1 2 3 4 5 6 7 8 9 10 11 12 13 14 15 16
000
FTUS45 KVEF 171700
TAFEED
TAF
KEED 171729Z 1718/1818 VRB05KT P6SM SCT150
     FM172000 15008KT P6SM SCT100 BKN150
     FM180400 24008KT P6SM FEW100 BKN250=

USA.gov is the U.S. government's official web portal to all federal, state and local government web resources and services.